Flag for Ukraine Weather past 2 weeks in Luhansk, Ukraine

Now
79 °F

Passing clouds.


Feels Like: 80 °F
Forecast: 64 / 82 °F
Wind: 13 mph from East

Location: Rostov-Na-Donu

Current Time: May 26, 2015 at 1:37:14 PM

Latest Report: May 26, 2015 at 1:00 PM


Visibility: N/A

Pressure: 29.80 "Hg

Humidity: 48%

Dew point: 57 °F

Location of LuhanskLocation

Historic Weather in Luhansk — Graph

°F

Luhansk temperature yesterday

Maximum temperature yesterday: 81 °F (at 3:00 PM)
Minimum temperature yesterday: 59 °F (at 2:30 AM)
Average temperature yesterday: 68 °F

Past Weeks' High & Low Weather Summary

 TemperatureHumidityPressure
High82 °F (May 24, 3:00 PM)94% (May 12, 5:00 AM)30.12 "Hg (May 12, 5:00 AM)
Low50 °F (May 12, 4:30 AM)24% (May 23, 4:00 PM)29.80 "Hg (May 25, 6:00 PM)
Average62 °F58%29.96 "Hg
* Reported May 11 12:00 Noon — May 26 12:00 Noon, Luhansk, Weather by CustomWeather, © 2015

Note: Actual official high and low records may vary slightly from our data, if they occured in-between our weather recording intervals... More about our weather records

Advertising

Luhansk weather history for previous 24 hours

 ConditionsComfort  
Time TempWeatherWind HumidityBarometerVisibility
12:00 PM
Tue, May 26
77 °FSunny.15 mph51%29.80 "Hg10 mi
11:00 AM75 °FSunny.15 mph54%29.80 "Hg10 mi
10:00 AM72 °FSunny.15 mph57%29.80 "Hg10 mi
9:00 AM68 °FSunny.13 mph56%29.80 "Hg10 mi
8:30 AM66 °FSunny.15 mph60%29.80 "Hg10 mi
8:00 AM64 °FSunny.15 mph60%29.80 "Hg10 mi
7:30 AM64 °FSunny.13 mph60%29.80 "Hg10 mi
7:00 AM63 °FSunny.15 mph59%29.80 "Hg10 mi
6:30 AM61 °FSunny.15 mph59%29.80 "Hg10 mi
5:30 AM59 °FClear.15 mph63%29.80 "Hg10 mi
5:00 AM59 °FClear.17 mph63%29.80 "Hg10 mi
4:30 AM59 °FClear.15 mph63%29.80 "HgN/A
4:00 AM61 °FClear.13 mph59%29.80 "HgN/A
3:30 AM61 °FClear.10 mph59%29.80 "HgN/A
3:00 AM63 °FClear.10 mph59%29.80 "HgN/A
2:30 AM64 °FClear.13 mph56%29.80 "HgN/A
2:00 AM64 °FClear.13 mph56%29.80 "HgN/A
1:30 AM64 °FClear.10 mph60%29.80 "HgN/A
1:00 AM64 °FClear.10 mph60%29.80 "HgN/A
12:30 AM66 °FClear.10 mph56%29.80 "HgN/A
11:30 PM
Mon, May 25
68 °FClear.10 mph56%29.83 "HgN/A
11:00 PM68 °FClear.10 mph60%29.80 "HgN/A
10:30 PM70 °FClear.10 mph60%29.80 "HgN/A
10:00 PM70 °FClear.8 mph64%29.80 "HgN/A
9:30 PM72 °FClear.8 mph61%29.80 "HgN/A
9:00 PM72 °FClear.8 mph61%29.80 "HgN/A
8:30 PM72 °FClear.8 mph53%29.80 "HgN/A
8:00 PM73 °FSunny.6 mph50%29.80 "Hg10 mi
7:00 PM77 °FSunny.3 mph44%29.80 "Hg10 mi
6:00 PM79 °FSunny.6 mph39%29.80 "Hg10 mi
5:00 PM81 °FSunny.10 mph34%29.83 "Hg10 mi
4:00 PM81 °FSunny.13 mph34%29.83 "Hg10 mi
3:00 PM81 °FSunny.10 mph39%29.83 "Hg10 mi
2:00 PM77 °FSunny.15 mph42%29.86 "Hg10 mi
1:00 PM75 °FPassing clouds.13 mph47%29.86 "HgN/A
Weather by CustomWeather, © 2015

See weather overviewHow to use our weather pages